Redwood Falls, MN

2:05 PM CST on November 20, 2019 (GMT -0600)
Redwood Falls Municipal

Weather History for KRWF - September, 2019

Change the Weather History Date:

Tuesday, September 17, 2019

  Actual Average Record
Temperature  
Mean Temperature 81 °F -  
Max Temperature 90 °F 74 °F 97 °F (1955)
Min Temperature 73 °F 50 °F 31 °F (1943)
Cooling Degree Days 16    
Growing Degree Days 31 (Base 50)    
Moisture  
Dew Point 70 °F    
Average Humidity 74    
Maximum Humidity 93    
Minimum Humidity 52    
Precipitation  
Precipitation 0.00 in - - ()
Sea Level Pressure  
Sea Level Pressure 29.85 in    
Wind  
Wind Speed 14 mph ()    
Max Wind Speed 24 mph    
Max Gust Speed 38 mph    
Visibility 9.5 miles    
Events      
Averages and records for this station are not official NWS values.
T = Trace of Precipitation, MM = Missing Value Source: Averaged Metar Reports

Daily Weather History Graph

Daily Weather History Graph

Search for Another Location

Airport or City:

Astronomy

Sep. 17, 2019 Rise Set
Actual Time 7:01 AM CDT 7:27 PM CDT
Civil Twilight 6:32 AM CDT 7:56 PM CDT
Nautical Twilight 5:57 AM CDT 8:31 PM CDT
Astronomical Twilight 5:21 AM CDT 9:06 PM CDT
Moon 9:23 PM CDT (9/17) 10:13 AM CDT (9/17)
Length of Visible Light 13h 24m
Length of Day
12h 26m
Waning Gibbous, 89% of the Moon is Illuminated
Sep 17
Waning Gibbous
Sep 21
Last Quarter
Sep 28
New
Oct 5
First Quarter
Oct 13
Full

Hourly Weather History & Observations

Time (CDT) Temp. Heat Index Dew Point Humidity Pressure Visibility Wind Dir Wind Speed Gust Speed Precip Events Conditions
12:53 AM 73.9 °F - 72.0 °F 93% 29.90 in 8.0 mi SSE 12.7 mph - N/A   Clear
1:53 AM 73.0 °F - 71.1 °F 93% 29.91 in 8.0 mi SSE 12.7 mph - N/A   Clear
2:53 AM 73.0 °F - 71.1 °F 93% 29.90 in 8.0 mi SSE 13.8 mph - N/A   Clear
3:53 AM 73.0 °F - 70.0 °F 90% 29.89 in 8.0 mi SSE 12.7 mph - N/A   Clear
4:53 AM 73.9 °F - 70.0 °F 87% 29.88 in 10.0 mi SSE 12.7 mph - N/A   Mostly Cloudy
5:53 AM 73.9 °F - 70.0 °F 87% 29.88 in 10.0 mi SSE 10.4 mph - N/A   Partly Cloudy
6:53 AM 73.0 °F - 70.0 °F 90% 29.88 in 9.0 mi SSE 15.0 mph - N/A   Scattered Clouds
7:53 AM 73.9 °F - 70.0 °F 87% 29.88 in 8.0 mi SSE 18.4 mph - N/A   Clear
8:53 AM 75.0 °F - 70.0 °F 84% 29.88 in 9.0 mi South 20.7 mph 31.1 mph N/A   Partly Cloudy
9:53 AM 77.0 °F - 70.0 °F 79% 29.87 in 9.0 mi SSE 18.4 mph 27.6 mph N/A   Clear
10:53 AM 80.1 °F 83.6 °F 71.1 °F 74% 29.87 in 10.0 mi South 16.1 mph 26.5 mph N/A   Clear
11:53 AM 82.9 °F 87.5 °F 71.1 °F 67% 29.86 in 10.0 mi South 17.3 mph 33.4 mph N/A   Clear
12:53 PM 88.0 °F 92.9 °F 70.0 °F 55% 29.85 in 10.0 mi South 23.0 mph 38.0 mph N/A   Clear
1:53 PM 89.1 °F 95.0 °F 71.1 °F 55% 29.83 in 10.0 mi South 23.0 mph 32.2 mph N/A   Clear
2:53 PM 89.1 °F 95.0 °F 71.1 °F 55% 29.82 in 10.0 mi South 24.2 mph 34.5 mph N/A   Clear
3:53 PM 89.1 °F 95.0 °F 71.1 °F 55% 29.81 in 10.0 mi South 21.9 mph 32.2 mph N/A   Clear
4:53 PM 89.1 °F 93.7 °F 69.1 °F 52% 29.80 in 10.0 mi South 17.3 mph 33.4 mph N/A   Clear
5:53 PM 87.1 °F 90.6 °F 68.0 °F 53% 29.79 in 10.0 mi South 21.9 mph 29.9 mph N/A   Clear
6:53 PM 82.0 °F 84.9 °F 68.0 °F 62% 29.80 in 10.0 mi South 12.7 mph - N/A   Clear
7:53 PM 80.1 °F 82.7 °F 68.0 °F 67% 29.80 in 10.0 mi SSE 13.8 mph - N/A   Clear
8:53 PM 79.0 °F - 69.1 °F 72% 29.81 in 10.0 mi SSE 13.8 mph - N/A   Clear
9:53 PM 77.0 °F - 69.1 °F 76% 29.82 in 10.0 mi SSE 13.8 mph 23.0 mph N/A   Mostly Cloudy
10:53 PM 77.0 °F - 68.0 °F 74% 29.81 in 10.0 mi SSE 17.3 mph - N/A   Partly Cloudy
11:53 PM 75.9 °F - 68.0 °F 76% 29.81 in 10.0 mi SSE 17.3 mph - N/A   Mostly Cloudy